• In Belarus
  • List of Countries
  • For 7 days
  • Water Temperature
  • Satellite Maps
  • Weather Map
  • Weather Widgets
  • user-avatar
    Login

    Hourly Weather Setserleg

    Today, 19 January, Saturday

    Time Temperature Precipitation Wind Pressure Humidity
    00:00 -17°C° 0 mm 1 mps 614 mmHg 65%
    01:00 -17°C° 0 mm 1 mps 615 mmHg 66%
    02:00 -17°C° 0 mm 1 mps 615 mmHg 67%
    03:00 -17°C° 0 mm 1 mps 615 mmHg 67%
    04:00 -17°C° 0 mm 1 mps 615 mmHg 67%
    05:00 -18°C° 0 mm 1 mps 615 mmHg 67%
    06:00 -18°C° 0 mm 1 mps 616 mmHg 68%
    07:00 -18°C° 0 mm 1 mps 616 mmHg 68%
    08:00 -17°C° 0 mm 1 mps 616 mmHg 67%
    09:00 -17°C° 0 mm 1 mps 617 mmHg 66%
    10:00 -16°C° 0 mm 1 mps 617 mmHg 65%
    11:00 -15°C° 0 mm 1 mps 617 mmHg 62%
    12:00 -14°C° 0 mm 1 mps 618 mmHg 58%
    13:00 -13°C° 0 mm 1 mps 618 mmHg 54%
    14:00 -13°C° 0 mm 1 mps 618 mmHg 57%
    15:00 -13°C° 0 mm 1 mps 617 mmHg 59%
    16:00 -14°C° 0 mm 1 mps 617 mmHg 61%
    17:00 -14°C° 0 mm 1 mps 617 mmHg 60%
    18:00 -17°C° 0 mm 2 mps 617 mmHg 60%
    19:00 -17°C° 0 mm 2 mps 617 mmHg 59%
    20:00 -18°C° 0 mm 2 mps 617 mmHg 57%
    21:00 -18°C° 0 mm 2 mps 617 mmHg 55%
    22:00 -18°C° 0 mm 2 mps 617 mmHg 54%
    23:00 -18°C° 0 mm 2 mps 617 mmHg 51%

    Tomorrow, 20 January, Sunday

    Time Temperature Precipitation Wind Pressure Humidity
    00:00 -19°C° 0 mm 3 mps 617 mmHg 49%
    01:00 -18°C° 0 mm 3 mps 616 mmHg 47%
    02:00 -18°C° 0 mm 3 mps 616 mmHg 45%
    03:00 -18°C° 0 mm 3 mps 616 mmHg 44%
    04:00 -18°C° 0 mm 3 mps 616 mmHg 42%
    05:00 -18°C° 0 mm 3 mps 615 mmHg 42%
    06:00 -17°C° 0 mm 3 mps 615 mmHg 41%
    07:00 -17°C° 0 mm 3 mps 615 mmHg 40%
    08:00 -16°C° 0 mm 3 mps 615 mmHg 41%
    09:00 -16°C° 0 mm 3 mps 616 mmHg 42%
    10:00 -15°C° 0 mm 3 mps 616 mmHg 42%
    11:00 -13°C° 0 mm 3 mps 616 mmHg 43%
    12:00 -10°C° 0 mm 2 mps 615 mmHg 44%
    13:00 -8°C° 0 mm 2 mps 615 mmHg 44%
    14:00 -9°C° 0 mm 2 mps 615 mmHg 43%
    15:00 -9°C° 0 mm 2 mps 614 mmHg 41%
    16:00 -10°C° 0 mm 2 mps 614 mmHg 40%
    17:00 -10°C° 0 mm 2 mps 614 mmHg 40%
    18:00 -12°C° 0 mm 2 mps 614 mmHg 40%
    19:00 -14°C° 0 mm 3 mps 614 mmHg 39%
    20:00 -14°C° 0 mm 3 mps 613 mmHg 39%
    21:00 -14°C° 0 mm 3 mps 613 mmHg 38%
    22:00 -14°C° 0 mm 3 mps 613 mmHg 37%
    23:00 -14°C° 0 mm 3 mps 613 mmHg 37%

    Day after tomorrow, 21 January, Monday

    Time Temperature Precipitation Wind Pressure Humidity
    00:00 -14°C° 0 mm 3 mps 613 mmHg 36%
    01:00 -14°C° 0 mm 3 mps 612 mmHg 35%
    02:00 -13°C° 0 mm 2 mps 612 mmHg 34%
    03:00 -13°C° 0 mm 2 mps 612 mmHg 34%
    04:00 -13°C° 0 mm 2 mps 612 mmHg 33%
    05:00 -13°C° 0 mm 2 mps 612 mmHg 32%
    06:00 -13°C° 0 mm 2 mps 612 mmHg 32%
    07:00 -13°C° 0 mm 2 mps 612 mmHg 32%
    08:00 -13°C° 0 mm 2 mps 612 mmHg 33%
    09:00 -12°C° 0 mm 2 mps 612 mmHg 34%
    10:00 -10°C° 0 mm 2 mps 612 mmHg 35%
    11:00 -9°C° 0 mm 2 mps 612 mmHg 36%
    12:00 -7°C° 0 mm 2 mps 612 mmHg 37%
    13:00 -4°C° 0 mm 1 mps 612 mmHg 38%
    14:00 -6°C° 0 mm 1 mps 612 mmHg 37%
    15:00 -6°C° 0 mm 1 mps 611 mmHg 36%
    16:00 -7°C° 0 mm 1 mps 611 mmHg 34%
    17:00 -7°C° 0 mm 1 mps 611 mmHg 34%
    18:00 -9°C° 0 mm 2 mps 611 mmHg 34%
    19:00 -10°C° 0 mm 2 mps 610 mmHg 34%
    20:00 -10°C° 0 mm 2 mps 610 mmHg 35%
    21:00 -10°C° 0 mm 2 mps 610 mmHg 35%
    22:00 -10°C° 0 mm 2 mps 610 mmHg 35%
    23:00 -12°C° 0 mm 2 mps 609 mmHg 35%

    22 January, Tuesday

    Time Temperature Precipitation Wind Pressure Humidity
    00:00 -12°C° 0 mm 2 mps 609 mmHg 35%
    01:00 -12°C° 0 mm 2 mps 609 mmHg 35%
    02:00 -12°C° 0 mm 2 mps 609 mmHg 35%
    03:00 -12°C° 0 mm 2 mps 608 mmHg 35%
    04:00 -12°C° 0 mm 2 mps 608 mmHg 35%
    05:00 -12°C° 0 mm 2 mps 608 mmHg 35%
    06:00 -13°C° 0 mm 2 mps 608 mmHg 35%
    07:00 -13°C° 0 mm 2 mps 608 mmHg 35%
    08:00 -12°C° 0 mm 2 mps 608 mmHg 36%
    09:00 -12°C° 0 mm 2 mps 608 mmHg 37%
    10:00 -10°C° 0 mm 2 mps 609 mmHg 38%
    11:00 -9°C° 0 mm 2 mps 609 mmHg 39%
    12:00 -7°C° 0 mm 1 mps 609 mmHg 40%
    13:00 -4°C° 0 mm 1 mps 609 mmHg 40%
    14:00 -6°C° 0 mm 1 mps 608 mmHg 39%
    15:00 -7°C° 0 mm 1 mps 608 mmHg 38%
    16:00 -8°C° 0 mm 1 mps 608 mmHg 37%
    17:00 -8°C° 0 mm 1 mps 608 mmHg 36%
    18:00 -9°C° 0 mm 1 mps 608 mmHg 35%
    19:00 -10°C° 0 mm 1 mps 609 mmHg 34%
    20:00 -10°C° 0 mm 1 mps 609 mmHg 35%
    21:00 -10°C° 0 mm 1 mps 609 mmHg 36%
    22:00 -11°C° 0 mm 1 mps 610 mmHg 37%
    23:00 -11°C° 0 mm 1 mps 610 mmHg 39%

    23 January, Wednesday

    Time Temperature Precipitation Wind Pressure Humidity
    00:00 -11°C° 0 mm 1 mps 610 mmHg 40%
    01:00 -11°C° 0 mm 1 mps 610 mmHg 42%
    02:00 -12°C° 0 mm 1 mps 610 mmHg 43%
    03:00 -13°C° 0 mm 1 mps 610 mmHg 44%
    04:00 -13°C° 0 mm 1 mps 611 mmHg 45%
    05:00 -14°C° 0 mm 1 mps 611 mmHg 46%
    06:00 -14°C° 0 mm 1 mps 611 mmHg 47%
    07:00 -14°C° 0 mm 0 mps 611 mmHg 48%
    08:00 -14°C° 0 mm 0 mps 612 mmHg 50%
    09:00 -13°C° 0 mm 0 mps 613 mmHg 51%
    10:00 -13°C° 0 mm 0 mps 613 mmHg 52%
    11:00 -12°C° 0 mm 0 mps 613 mmHg 51%
    12:00 -11°C° 0 mm 1 mps 613 mmHg 51%
    13:00 -10°C° 0 mm 1 mps 613 mmHg 50%
    14:00 -11°C° 0 mm 1 mps 613 mmHg 57%
    15:00 -11°C° 0 mm 1 mps 613 mmHg 63%
    16:00 -12°C° 0 mm 1 mps 613 mmHg 69%
    17:00 -13°C° 0 mm 1 mps 613 mmHg 72%
    18:00 -13°C° 0 mm 1 mps 613 mmHg 74%
    19:00 -14°C° 0 mm 1 mps 613 mmHg 77%
    20:00 -14°C° 0 mm 1 mps 613 mmHg 77%
    21:00 -14°C° 0 mm 1 mps 614 mmHg 76%
    22:00 -14°C° 0 mm 1 mps 614 mmHg 76%
    23:00 -15°C° 0 mm 1 mps 614 mmHg 75%

    24 January, Thursday

    Time Temperature Precipitation Wind Pressure Humidity
    00:00 -15°C° 0 mm 1 mps 614 mmHg 74%
    01:00 -15°C° 0 mm 1 mps 614 mmHg 73%
    02:00 -15°C° 0 mm 0 mps 614 mmHg 72%
    03:00 -15°C° 0 mm 0 mps 613 mmHg 71%
    04:00 -15°C° 0 mm 0 mps 613 mmHg 70%
    05:00 -15°C° 0 mm 0 mps 614 mmHg 69%
    06:00 -15°C° 0 mm 0 mps 614 mmHg 68%
    07:00 -15°C° 0 mm 0 mps 614 mmHg 66%
    08:00 -15°C° 0 mm 0 mps 614 mmHg 64%
    09:00 -14°C° 0 mm 0 mps 615 mmHg 62%
    10:00 -13°C° 0 mm 0 mps 615 mmHg 60%
    11:00 -12°C° 0 mm 0 mps 615 mmHg 57%
    12:00 -11°C° 0 mm 0 mps 615 mmHg 55%
    13:00 -10°C° 0 mm 0 mps 615 mmHg 52%
    14:00 -11°C° 0 mm 0 mps 615 mmHg 56%
    15:00 -11°C° 0 mm 0 mps 615 mmHg 60%
    16:00 -12°C° 0 mm 0 mps 614 mmHg 64%
    17:00 -12°C° 0 mm 0 mps 614 mmHg 64%
    18:00 -13°C° 0 mm 1 mps 614 mmHg 65%
    19:00 -13°C° 0 mm 1 mps 614 mmHg 65%
    20:00 -13°C° 0 mm 1 mps 615 mmHg 63%
    21:00 -13°C° 0 mm 1 mps 615 mmHg 61%
    22:00 -13°C° 0 mm 1 mps 615 mmHg 59%
    23:00 -13°C° 0 mm 1 mps 614 mmHg 58%
    Show more